Location: Isle of Man Observatory
(54.1776°N, 4.6264°W)
Time: 06:58:03
(UTC+02:00)

Envisat - Pass Details

Date: 20 May 2026
Orbit: 761 x 763 km, 98.4° (Epoch: 11 June)

Event Time Altitude Azimuth Distance (km) Brightness Sun altitude
Rises 04:19:57 0° 20° (NNE) 3,238 8.2 -11.2°
Reaches altitude 10° 04:22:28 10° 29° (NNE) 2,307 7.1 -11.0°
Maximum altitude 04:27:07 35° 95° (E) 1,218 4.3 -10.6°
Drops below altitude 10° 04:31:43 10° 161° (SSE) 2,290 5.1 -10.3°
Enters shadow 04:33:24 - 168° (SSE) 2,912 5.6 -10.1°
